• Join FlightAware (Why Join?)
  • Login
  • US Flag GB Flag 
23:00 EST


 

Airport Tracker/Info


-or-


 

Live Flight TrackerFlight Track Log ✈ C-FTOH ✈ 11-Apr-2013 ✈ CYBG - CYQB

Flight Track Log - Related Links

Times and Time Zones

All times are in EDT time to prevent confusion due to time zone crossing. See the C-FTOH flight status page for this flight to view local times or setup timezone preferences in your user account.

Time Position Orientation Groundspeed Altitude Reporting Facility
EDT Latitude Longitude Course Direction KTS MPH feet Rate Location/Type
23:00 48.2833 -71.0833 188° South 250 288 6,700  Level Montreal Center
23:01 48.2000 -71.1000 188° South 280 322 10,600 1,020 Climbing Montreal Center
23:07 47.7210 -71.1940 188° South 315 362 13,700 480 Climbing FlightAware
23:07 47.6630 -71.2020 185° South 314 361 13,700  Level FlightAware
23:08 47.6050 -71.2100 185° South 314 361 13,700  Level FlightAware
23:09 47.5410 -71.2190 185° South 314 361 13,700  Level FlightAware
23:09 47.4830 -71.2270 185° South 316 364 13,700  Level FlightAware
23:10 47.4170 -71.2360 185° South 318 366 13,700  Level FlightAware
23:11 47.3590 -71.2450 186° South 317 365 13,700  Level FlightAware
23:12 47.3010 -71.2530 185° South 315 362 13,700  Level FlightAware
23:12 47.2360 -71.2620 185° South 313 360 13,700 -480 Level FlightAware
23:13 47.1800 -71.2700 186° South 302 348 13,100 -1,320 Descending FlightAware
23:14 47.1170 -71.2780 185° South 300 345 11,900 -1,500 Descending FlightAware
23:14 47.0640 -71.2890 188° South 293 337 11,000 -1,380 Descending FlightAware
23:15 47.0110 -71.3000 188° South 283 326 10,100 -1,200 Descending FlightAware
23:16 46.9730 -71.3080 188° South 272 313 9,600 -1,020 Descending FlightAware
23:16 46.9370 -71.3170 190° South 263 303 9,100 -1,080 Descending FlightAware
23:16 46.9250 -71.3240 202° Southwest 259 298 8,900 -1,200 Descending FlightAware
23:16 46.9130 -71.3420 226° Southwest 252 290 8,600 -1,080 Descending FlightAware
23:17 46.8900 -71.3800 228° Southwest 247 284 8,100 -1,080 Descending FlightAware
23:17 46.8790 -71.3980 228° Southwest 245 282 7,800 -1,080 Descending FlightAware
23:18 46.8610 -71.4290 230° Southwest 242 278 7,400 -1,020 Descending FlightAware
23:18 46.8390 -71.4660 229° Southwest 238 274 6,900 -1,020 Descending FlightAware
23:19 46.8210 -71.4950 228° Southwest 236 272 6,500 -1,020 Descending FlightAware
23:19 46.8000 -71.5310 230° Southwest 233 268 6,000 -1,140 Descending FlightAware
23:20 46.7780 -71.5660 227° Southwest 231 266 5,400 -1,020 Descending FlightAware
23:20 46.7610 -71.5960 230° Southwest 229 264 5,100 -900 Descending FlightAware
23:20 46.7400 -71.6290 227° Southwest 225 259 4,600 -900 Descending FlightAware
23:21 46.7230 -71.6570 228° Southwest 221 254 4,300 -600 Descending FlightAware
23:21 46.7100 -71.6670 208° Southwest 208 239 4,200 -720 Descending FlightAware
23:22 46.6870 -71.6510 154° Southeast 191 220 3,800 -660 Descending FlightAware
23:22 46.6750 -71.6260 125° Southeast 175 201 3,600 -720 Descending FlightAware
23:22 46.6720 -71.6150 112° Southeast 173 199 3,400 -840 Descending FlightAware
23:23 46.6750 -71.5930 79° East 163 188 3,200 -720 Descending FlightAware
23:23 46.6800 -71.5690 73° East 151 174 2,900 -600 Descending FlightAware
23:23 46.6890 -71.5420 64° Northeast 147 169 2,700 -600 Descending FlightAware
23:24 46.7030 -71.5200 47° Northeast 150 173 2,300 -900 Descending FlightAware
23:24 46.7150 -71.5030 44° Northeast 139 160 1,900 -780 Descending FlightAware
23:25 46.7280 -71.4840 45° Northeast 125 144 1,600 -720 Descending FlightAware
23:25 46.7340 -71.4760 42° Northeast 120 138 1,400 -780 Descending FlightAware
23:26 46.7440 -71.4620 44° Northeast 115 132 1,100 -660 Descending FlightAware
23:26 46.7550 -71.4460 45° Northeast 115 132 800 -660 Descending FlightAware
23:26 46.7640 -71.4320 47° Northeast 120 138 500 -660 Descending FlightAware
23:27 46.7760 -71.4150 44° Northeast 122 140 200 -600 Descending FlightAware
23:28 46.7900 -71.3950 44° Northeast 126 145 -300 Descending FlightAware
23:35 46.7911 -71.3933 64° Northeast  Level Estimated
23:36 46.7911 -71.3933 64° Northeast  Level Estimated